When you browse on this site, cookies collect data to enhance your experience and personalize the content and advertising you see.
Visit our Privacy Policy to learn more. By continuing to use the site, you agree to this use of cookies and data.
  • In Hungary
  • List of Countries
  • For 7 days
  • Water Temperature
  • Satellite Maps
  • Weather Map
  • News
  • Weather Widgets
  • user-avatar
    Login

    Hourly Weather Tibissa

    Today, 23 April, Tuesday

    Time Temperature Precipitation Wind Pressure Humidity
    00:00 +14°C° 0 mm 4 mps 676 mmHg 51%
    01:00 +13°C° 0 mm 4 mps 676 mmHg 51%
    02:00 +13°C° 0 mm 4 mps 676 mmHg 52%
    03:00 +12°C° 0 mm 4 mps 676 mmHg 52%
    04:00 +12°C° 0 mm 3 mps 675 mmHg 53%
    05:00 +12°C° 0 mm 4 mps 676 mmHg 53%
    06:00 +13°C° 0 mm 4 mps 676 mmHg 52%
    07:00 +13°C° 0 mm 4 mps 677 mmHg 52%
    08:00 +15°C° 0 mm 6 mps 677 mmHg 46%
    09:00 +16°C° 0 mm 8 mps 678 mmHg 40%
    10:00 +18°C° 0 mm 10 mps 679 mmHg 34%
    11:00 +19°C° 0 mm 10 mps 679 mmHg 32%
    12:00 +21°C° 0 mm 10 mps 679 mmHg 29%
    13:00 +22°C° 0 mm 10 mps 679 mmHg 26%
    14:00 +22°C° 0 mm 10 mps 679 mmHg 26%
    15:00 +22°C° 0 mm 10 mps 679 mmHg 25%
    16:00 +22°C° 0 mm 10 mps 679 mmHg 25%
    17:00 +21°C° 0 mm 8 mps 680 mmHg 27%
    18:00 +20°C° 0 mm 7 mps 680 mmHg 29%
    19:00 +19°C° 0 mm 6 mps 680 mmHg 31%
    20:00 +17°C° 0 mm 5 mps 680 mmHg 34%
    21:00 +17°C° 0 mm 4 mps 681 mmHg 36%
    22:00 +16°C° 0 mm 3 mps 681 mmHg 39%
    23:00 +16°C° 0 mm 2 mps 681 mmHg 40%

    Tomorrow, 24 April, Wednesday

    Time Temperature Precipitation Wind Pressure Humidity
    00:00 +15°C° 0 mm 2 mps 681 mmHg 41%
    01:00 +15°C° 0 mm 1 mps 680 mmHg 42%
    02:00 +15°C° 0 mm 2 mps 680 mmHg 40%
    03:00 +15°C° 0 mm 2 mps 680 mmHg 38%
    04:00 +14°C° 0 mm 3 mps 680 mmHg 36%
    05:00 +16°C° 0 mm 3 mps 680 mmHg 37%
    06:00 +15°C° 0 mm 4 mps 681 mmHg 38%
    07:00 +15°C° 0 mm 5 mps 681 mmHg 40%
    08:00 +18°C° 0 mm 7 mps 682 mmHg 34%
    09:00 +21°C° 0 mm 9 mps 682 mmHg 29%
    10:00 +23°C° 0 mm 11 mps 683 mmHg 24%
    11:00 +24°C° 0 mm 10 mps 683 mmHg 23%
    12:00 +26°C° 0 mm 10 mps 683 mmHg 21%
    13:00 +27°C° 0 mm 9 mps 683 mmHg 20%
    14:00 +27°C° 0 mm 9 mps 683 mmHg 21%
    15:00 +27°C° 0 mm 9 mps 683 mmHg 22%
    16:00 +27°C° 0 mm 8 mps 683 mmHg 24%
    17:00 +24°C° 0 mm 7 mps 683 mmHg 27%
    18:00 +23°C° 0 mm 6 mps 683 mmHg 31%
    19:00 +22°C° 0 mm 5 mps 683 mmHg 35%
    20:00 +20°C° 0 mm 4 mps 683 mmHg 45%
    21:00 +18°C° 0 mm 3 mps 683 mmHg 56%
    22:00 +16°C° 0 mm 3 mps 683 mmHg 66%
    23:00 +15°C° 0 mm 2 mps 683 mmHg 71%

    Day after tomorrow, 25 April, Thursday

    Time Temperature Precipitation Wind Pressure Humidity
    00:00 +15°C° 0 mm 2 mps 683 mmHg 75%
    01:00 +14°C° 0 mm 2 mps 683 mmHg 80%
    02:00 +14°C° 0 mm 2 mps 683 mmHg 82%
    03:00 +13°C° 0 mm 1 mps 683 mmHg 85%
    04:00 +13°C° 0 mm 1 mps 682 mmHg 87%
    05:00 +13°C° 0 mm 1 mps 683 mmHg 84%
    06:00 +14°C° 0 mm 1 mps 683 mmHg 82%
    07:00 +14°C° 0 mm 1 mps 684 mmHg 79%
    08:00 +16°C° 0 mm 1 mps 684 mmHg 69%
    09:00 +19°C° 0 mm 1 mps 685 mmHg 58%
    10:00 +21°C° 0 mm 1 mps 686 mmHg 47%
    11:00 +23°C° 0 mm 1 mps 686 mmHg 40%
    12:00 +25°C° 0 mm 1 mps 687 mmHg 33%
    13:00 +27°C° 0 mm 1 mps 687 mmHg 26%
    14:00 +27°C° 0 mm 2 mps 687 mmHg 23%
    15:00 +28°C° 0 mm 2 mps 687 mmHg 20%
    16:00 +29°C° 0 mm 2 mps 686 mmHg 17%
    17:00 +28°C° 0 mm 3 mps 686 mmHg 22%
    18:00 +26°C° 0 mm 3 mps 687 mmHg 26%
    19:00 +25°C° 0 mm 3 mps 687 mmHg 30%
    20:00 +24°C° 0 mm 3 mps 687 mmHg 38%
    21:00 +21°C° 0 mm 3 mps 687 mmHg 45%
    22:00 +20°C° 0 mm 3 mps 688 mmHg 53%
    23:00 +19°C° 0 mm 2 mps 688 mmHg 59%

    26 April, Friday

    Time Temperature Precipitation Wind Pressure Humidity
    00:00 +19°C° 0 mm 1 mps 687 mmHg 64%
    01:00 +18°C° 0 mm 1 mps 687 mmHg 70%
    02:00 +18°C° 0 mm 1 mps 687 mmHg 71%
    03:00 +15°C° 0 mm 0 mps 687 mmHg 73%
    04:00 +14°C° 0 mm 0 mps 686 mmHg 74%
    05:00 +15°C° 0 mm 0 mps 687 mmHg 70%
    06:00 +16°C° 0 mm 0 mps 687 mmHg 65%
    07:00 +17°C° 0 mm 0 mps 688 mmHg 61%
    08:00 +19°C° 0 mm 0 mps 688 mmHg 54%
    09:00 +20°C° 0 mm 0 mps 689 mmHg 47%
    10:00 +24°C° 0 mm 1 mps 689 mmHg 39%
    11:00 +25°C° 0 mm 1 mps 690 mmHg 35%
    12:00 +26°C° 0 mm 1 mps 690 mmHg 30%
    13:00 +27°C° 0 mm 1 mps 690 mmHg 25%
    14:00 +27°C° 0 mm 3 mps 689 mmHg 28%
    15:00 +26°C° 0 mm 4 mps 689 mmHg 31%
    16:00 +26°C° 0 mm 6 mps 689 mmHg 34%
    17:00 +23°C° 0.1 mm 6 mps 689 mmHg 44%
    18:00 +21°C° 0.1 mm 7 mps 689 mmHg 53%
    19:00 +18°C° 0.1 mm 7 mps 689 mmHg 62%
    20:00 +17°C° 0 mm 6 mps 689 mmHg 65%
    21:00 +17°C° 0 mm 4 mps 690 mmHg 69%
    22:00 +16°C° 0 mm 3 mps 690 mmHg 72%
    23:00 +14°C° 0 mm 3 mps 690 mmHg 74%

    27 April, Saturday

    Time Temperature Precipitation Wind Pressure Humidity
    00:00 +14°C° 0 mm 3 mps 690 mmHg 76%
    01:00 +14°C° 0 mm 2 mps 689 mmHg 78%
    02:00 +14°C° 0 mm 2 mps 689 mmHg 80%
    03:00 +13°C° 0 mm 2 mps 689 mmHg 82%
    04:00 +13°C° 0 mm 2 mps 688 mmHg 85%
    05:00 +13°C° 0 mm 2 mps 689 mmHg 85%
    06:00 +13°C° 0 mm 2 mps 689 mmHg 85%
    07:00 +13°C° 0 mm 2 mps 689 mmHg 84%
    08:00 +13°C° 0 mm 3 mps 690 mmHg 76%
    09:00 +16°C° 0 mm 3 mps 690 mmHg 67%
    10:00 +17°C° 0 mm 3 mps 691 mmHg 59%
    11:00 +18°C° 0 mm 3 mps 691 mmHg 54%
    12:00 +20°C° 0 mm 3 mps 691 mmHg 50%
    13:00 +21°C° 0 mm 3 mps 691 mmHg 45%
    14:00 +21°C° 0 mm 4 mps 690 mmHg 45%
    15:00 +21°C° 0 mm 5 mps 690 mmHg 45%
    16:00 +22°C° 0 mm 5 mps 690 mmHg 45%
    17:00 +20°C° 0.4 mm 6 mps 690 mmHg 51%
    18:00 +17°C° 0.4 mm 6 mps 689 mmHg 57%
    19:00 +15°C° 0.4 mm 6 mps 689 mmHg 63%
    20:00 +15°C° 0.1 mm 6 mps 690 mmHg 64%
    21:00 +14°C° 0.1 mm 5 mps 690 mmHg 65%
    22:00 +13°C° 0.1 mm 4 mps 690 mmHg 67%
    23:00 +12°C° 0 mm 4 mps 690 mmHg 68%

    28 April, Sunday

    Time Temperature Precipitation Wind Pressure Humidity
    00:00 +11°C° 0 mm 4 mps 690 mmHg 70%
    01:00 +11°C° 0 mm 3 mps 690 mmHg 72%
    02:00 +10°C° 0 mm 3 mps 690 mmHg 72%
    03:00 +10°C° 0 mm 3 mps 689 mmHg 72%
    04:00 +9°C° 0 mm 3 mps 689 mmHg 72%
    05:00 +9°C° 0 mm 3 mps 689 mmHg 67%
    06:00 +10°C° 0 mm 3 mps 689 mmHg 63%
    07:00 +10°C° 0 mm 3 mps 689 mmHg 58%
    08:00 +11°C° 0 mm 4 mps 690 mmHg 51%
    09:00 +13°C° 0 mm 4 mps 690 mmHg 44%
    10:00 +14°C° 0 mm 5 mps 690 mmHg 36%
    11:00 +15°C° 0 mm 5 mps 690 mmHg 33%
    12:00 +17°C° 0 mm 5 mps 690 mmHg 30%
    13:00 +19°C° 0 mm 5 mps 690 mmHg 28%
    14:00 +19°C° 0 mm 5 mps 690 mmHg 27%
    15:00 +20°C° 0 mm 5 mps 689 mmHg 26%
    16:00 +20°C° 0 mm 4 mps 689 mmHg 25%
    17:00 +19°C° 0 mm 4 mps 689 mmHg 30%
    18:00 +18°C° 0 mm 4 mps 689 mmHg 34%
    19:00 +17°C° 0 mm 4 mps 689 mmHg 38%
    20:00 +16°C° 0 mm 3 mps 689 mmHg 45%
    21:00 +15°C° 0 mm 2 mps 689 mmHg 52%
    22:00 +14°C° 0 mm 2 mps 689 mmHg 59%
    23:00 +13°C° 0 mm 1 mps 689 mmHg 62%
    Show more